Regional Weather Roundup
Issued by NWS

Home | Current Version | Previous Version | Graphics & Text | Print | Product List | Glossary Off
Versions: 1 2 3 4 5 6 7 8 9 10 11 12 13 14 15 16 17 18 19 20 21 22 23 24 25 26 27 28 29 30 31 32 33 34 35 36 37 38 39 40 41 42 43 44 45 46 47 48 49 50

361
ASUS43 KMKX 280800
RWRWI

WISCONSIN REGIONAL WEATHER ROUNDUP
NATIONAL WEATHER SERVICE MILWAUKEE/SULLIVAN WI
300 AM CDT TUE MAR 28 2017

NOTE: "FAIR" INDICATES FEW OR NO CLOUDS BELOW 12,000 FEET WITH NO
SIGNIFICANT WEATHER AND/OR OBSTRUCTIONS TO VISIBILITY.

WIZ001-002-006>008-014>016-023>028-280900-
NORTHWEST WISCONSIN

CITY           SKY/WX    TMP DP  RH WIND       PRES   REMARKS
SUPERIOR ARPT  CLEAR     26  25  97 CALM      30.09R
ASHLAND        CLEAR     25  24  96 CALM      30.09R FOG
HAYWARD        CLEAR     27  24  89 NE5       30.07R WCI  22
SIREN          CLEAR     28  25  86 CALM      30.06S
CUMBERLAND     CLEAR     32  30  93 CALM      30.05S
RICE LAKE      CLEAR     30  29  98 CALM      30.07R FOG
CHETEK         CLEAR     29  29 100 CALM      30.06R
LADYSMITH      CLEAR     30  29  95 CALM      30.07R
EAU CLAIRE     FOG       28  27  93 CALM      30.05S VSB 1
MENOMONIE      CLEAR     31  31  99 W3        30.06R FOG
NEW RICHMOND   CLEAR     32  32 100 CALM      30.06R FOG
OSCEOLA        CLEAR     32  32 100 CALM      30.09R
$$

WIZ003>005-009-010-017-018-280900-
NORTH CENTRAL WISCONSIN

CITY           SKY/WX    TMP DP  RH WIND       PRES   REMARKS
MANITOWISH WTR   N/A     24  24 100 CALM      30.04S FOG
ARBOR VITAE    FOG       27  26  96 CALM      30.03S VSB 1/2
WOODRUFF       FOG       27  26  96 CALM      30.03S VSB 1/2
RHINELANDER    FOG       26  25  96 CALM      30.04S VSB 1/2
EAGLE RIVER    PTCLDY    26  26 100 CALM      30.03S FOG
LAND O LAKES   CLEAR     25  25  99 CALM      30.06R
PHILLIPS       CLEAR     25  25 100 CALM      30.04S
TOMAHAWK       CLEAR     24  23  95 CALM      30.05S
MEDFORD        CLEAR     29  29  99 CALM      30.04R
MERRILL        CLEAR     26  26 100 CALM      30.05S
$$

WIZ029-030-035-036-043>047-280900-
CENTRAL WISCONSIN

CITY           SKY/WX    TMP DP  RH WIND       PRES   REMARKS
WAUSAU         CLEAR     29  28  96 CALM      30.04R FOG
MOSINEE        PTCLDY    34  34 100 N3        30.05S
MARSHFIELD     FOG       32  30  92 CALM      30.04R VSB 1/4
STEVENS POINT  CLOUDY    37  37 100 CALM      30.05S
WAUPACA        CLOUDY    42  40  95 NE5       30.06R
WAUTOMA        CLOUDY    41  38  89 NE5       30.06R
WISC RAPIDS    CLOUDY    41  39  93 NE5       30.06S
CAMP DOUGLAS   NOT AVBL
$$

WIZ011>013-019>022-031-037>040-048>050-280900-
NORTHEAST WISCONSIN

CITY           SKY/WX    TMP DP  RH WIND       PRES   REMARKS
ANTIGO         CLEAR     29  29 100 CALM      30.04S
SHAWANO        CLEAR     37  36  93 CALM      30.05S
OCONTO           N/A     28  28  99 CALM      30.05R VSB 3/4
STURGEON BAY   PTCLDY    34  33  96 NW5       30.02R WCI  30
GREEN BAY      CLOUDY    37  36  96 NW3       30.05R
MANITOWOC      NOT AVBL
APPLETON       CLOUDY    37  37 100 NW6       30.03R WCI  33
CLINTONVILLE   CLOUDY    41  36  81 N3        30.05R
OSHKOSH        CLOUDY    40  37  89 NW5       30.04R
$$

WIZ032>034-041-042-053>061-280900-
SOUTHWEST WISCONSIN

CITY           SKY/WX    TMP DP  RH WIND       PRES   REMARKS
LA CROSSE      CLOUDY    39  38  96 NW8       30.05S WCI  33
SPARTA         CLOUDY    39  38  95 N3        30.06S
VIROQUA        CLOUDY    41  41  97 CALM      30.03S
BOSCOBEL       CLOUDY    46  43  89 NE3       30.03S
PRAIRIE DU CHI CLOUDY    45  42  89 N3        30.03R
PLATTEVILLE    CLOUDY    45  45 100 CALM      30.01F
$$

WIZ056-057-062-063-064-067-068-280900-
SOUTH CENTRAL WISCONSIN

CITY           SKY/WX    TMP DP  RH WIND       PRES   REMARKS
REEDSBURG      FOG       41  41 100 E3        30.03S VSB 1
BARABOO/DELLS  CLOUDY    41  40  96 NE3       30.04S FOG
LONE ROCK      CLOUDY    45  42  89 NE8       30.03S FOG
MINERAL POINT  CLOUDY    45  45 100 CALM      30.00F FOG
MADISON        CLOUDY    42  41  96 N6        30.03R FOG
MIDDLETON      CLOUDY    44  44 100 N6        30.02S
WATERTOWN      CLOUDY    40  40  97 N5        30.03R
MONROE         FOG       43  43 100 NE5       30.00R VSB 3/4
JANESVILLE     CLOUDY    43  43 100 CALM      30.01R FOG
$$

WIZ051-052-058>065-066-070>072-280900-
SOUTHEAST WISCONSIN

CITY           SKY/WX    TMP DP  RH WIND       PRES   REMARKS
MILWAUKEE      CLOUDY    40  35  83 N8        30.02S WCI  34
WAUKESHA       CLOUDY    36  34  93 N5        30.03R WCI  32
MILWAUKEE/TIMM CLOUDY    37  34  87 N5        30.03S WCI  34
RACINE         CLOUDY    38  34  85 N12       30.03R WCI  30
KENOSHA        CLOUDY    39  35  86 N7        30.02R WCI  34
FOND DU LAC    CLOUDY    40  36  86 NW3       30.04R
SHEBOYGAN      CLOUDY    38  35  89 N5        30.03R WCI  34
WEST BEND      CLOUDY    37  36  93 N3        30.03R
JUNEAU         CLOUDY    39  37  91 N3        30.04R
$$

LSZ147-162-280900-
LAKE SUPERIOR

STATION/POSITION TIME  TEMP    WIND        PRES    WAVE
                       AIR SEA DIR/SP/G            HT/PER
                 (UTC) (F)     (DEG/KT/KT) (MB)    (FT/S)
DEVILS ISLAND    0700   37        CALM     1018.8S
PORT WING        0740   29      CALM  /  2 1018.6R
SAXON HARBOR     0730   27     200/  3/  3 1018.3S
$$

LMZ867-665-643>646-280900-
LAKE MICHIGAN

STATION/POSITION TIME  TEMP    WIND        PRES    WAVE
                       AIR SEA DIR/SP/G            HT/PER
                 (UTC) (F)     (DEG/KT/KT) (MB)    (FT/S)
CHAMBERS ISLAND  0740   33     330/  2/  4 1016.9R
NORTHPORT PIER   0740   34     320/  4/  6 1017.3R
SISTER BAY       0606   34     350/  6/  6   N/A
KEWAUNEE LAKESHO 0730   38     330/  3/  5 1016.5S
SHEBOYGAN LAKESH 0700   38     340/  5/  6 1017.0S
PORT WASHINGTON  0730   39     360/  2/  6 1017.6S
MILWAUKEE LAKESH 0730   39     360/  7/  8   N/A
KENOSHA   LAKESH 0700   38      10/ 11/ 13 1016.3
$$

TC  - TEMPERATURE IN CELSIUS
VSB - VISIBILITY IN STATUTE MILES
WCI - WIND CHILL INDEX
HX  - HEAT INDEX





USA.gov is the U.S. government's official web portal to all federal, state and local government web resources and services.